This is the latest recevied weather packets stored in our database for station/object W5ITZ. If no packets are shown the sender has not sent any weather packets the latest 10 day(s).
| Time | Temp. | Humidity | Pressure | Rain* | Wind** | Luminosity | Snow |
|---|---|---|---|---|---|---|---|
| 1777504441 | 28.33° C | 69% | 1009.2 hPa | 0 mm | - | 166 W/m² | - |
| 1777504136 | 28.89° C | 68% | 1009.2 hPa | 0 mm | - | 110 W/m² | - |
| 1777503832 | 28.89° C | 69% | 1009.2 hPa | 0 mm | - | 252 W/m² | - |
| 1777503529 | 28.89° C | 68% | 1009.3 hPa | 0 mm | - | 272 W/m² | - |
| 1777503225 | 28.33° C | 70% | 1009.3 hPa | 0 mm | - | 297 W/m² | - |
| 1777502922 | 28.89° C | 69% | 1009.3 hPa | 0 mm | - | 215 W/m² | - |
| 1777502619 | 28.89° C | 69% | 1009.5 hPa | 0 mm | - | 332 W/m² | - |
| 1777502316 | 28.33° C | 69% | 1009.3 hPa | 0 mm | - | 363 W/m² | - |
| 1777502013 | 28.33° C | 70% | 1009.2 hPa | 0 mm | - | 304 W/m² | - |
| 1777501710 | 28.33° C | 69% | 1009.4 hPa | 0 mm | - | 178 W/m² | - |
| 1777501408 | 28.89° C | 69% | 1009.2 hPa | 0 mm | - | 324 W/m² | - |
| 1777501105 | 28.89° C | 68% | 1009.5 hPa | 0 mm | - | 389 W/m² | - |
| 1777500803 | 28.89° C | 68% | 1009.5 hPa | 0 mm | - | 471 W/m² | - |
| 1777500500 | 28.89° C | 68% | 1009.4 hPa | 0 mm | - | 487 W/m² | - |
| 1777500196 | 29.44° C | 67% | 1009.4 hPa | 0 mm | - | 565 W/m² | - |
| 1777499893 | 28.89° C | 68% | 1009.5 hPa | 0 mm | - | 555 W/m² | - |
| 1777499589 | 28.33° C | 69% | 1009.5 hPa | 0 mm | - | 431 W/m² | - |
| 1777499287 | 28.33° C | 69% | 1009.7 hPa | 0 mm | - | 303 W/m² | - |
| 1777498984 | 28.89° C | 69% | 1009.9 hPa | 0 mm | - | 233 W/m² | - |
| 1777498680 | 28.89° C | 65% | 1009.7 hPa | 0 mm | - | 377 W/m² | - |
| 1777498376 | 28.89° C | 67% | 1009.7 hPa | 0 mm | - | 507 W/m² | - |
| 1777498074 | 28.89° C | 69% | 1009.8 hPa | 0 mm | - | 647 W/m² | - |
| 1777497770 | 28.89° C | 68% | 1009.7 hPa | 0 mm | - | 677 W/m² | - |
| 1777497467 | 29.44° C | 66% | 1009.8 hPa | 0 mm | - | 333 W/m² | - |
| 1777497163 | 29.44° C | 68% | 1009.6 hPa | 0 mm | - | 568 W/m² | - |
* Rain latest hour (hover to see other rain measurements)
** Current wind speed in m/s (hover to see current wind gust speed)